全球卫星定位系统 GPS 11星 (NAVSTAR 11 (USA 10))

导读

NAVSTAR 11又名USA 10,是美国GPS全球定位系统发展计划中的导航卫星,于1985年10月9日发射升空,它是11颗GPS Block I卫星中最后一枚发射的卫星。该系列初代卫星主要用于验证GPS系统技术可行性,为后续全球组网的24颗GPS工作卫星奠定基础,支撑了美国国防部打造全天候、全时段军用导航体系的研发目标,也为后续民用GPS应用推广打下技术基础。

基本信息
目录编号:
16129
目录名称:
NAVSTAR 11 (USA 10)
国际标识:
1985-093A
轨道中心:
EARTH
卫星名称:
GPS 11星
卫星全名:
全球卫星定位系统 GPS 11星 (NAVSTAR 11 (USA 10))
卫星状态:
在轨 (已飞行14856 天)
发射日期:
1985-10-09 UTC
国别 :
美国 (US)
星等 :
--
轨道信息
数据来源 国际轨道数据 AOE轨道数据
星历时间 2026-06-12T13:00:55+0800
13小时前
查看轨道信息
2026-06-10T23:00:00+0800
2天前
查看轨道信息
半长轴 27597.075km 27597.055km
偏心率 0.0342757 0.0342764
轨道倾角 63.557° 63.556°
近地点辐角 55.974° 55.963°
升交点赤经 84.753° 84.797°
平近点角 120.295° 120.471°
近地点 20273.028km 20272.99km
远地点 22164.848km 22164.846km
周期 760.421分钟 760.421分钟
每日圈数 1.893687 1.893689
详细信息
平衡模式:
三轴稳定
覆盖范围:
全球
运营商:
美国太空军
运营商所在国:
美国
制造商(研发单位):
罗克韦尔自动化公司
制造商所在国:
美国
使用方式:
暂无
卫星简介
全球定位系统(英语:Global Positioning System,通常简称GPS),又称全球卫星定位系统,是美国国防部研制,美国太空军运营与维护的中地球轨道卫星导航系统。它可以为地球表面约98%的地区提供准确的定位、测速和高精度的标准时间。全球定位系统可满足位于全球地面任何一处或近地空间的军事用户连续且精确地确定三维位置、三维运动和时间的需求。该系统包括太空中的31颗GPS人造卫星.该卫星已退役。
2D轨道图
3D轨道图
轨道高度分析图
轨道倾角分析图
轨道综合分析图
查看轨道综合分析图